This demonstration page uses our WeatherBlox Daily Observations layout. Learn more.

Left ArrowRight Arrow

40.92945, -100.16068

Hourly Observations for August 2, 2020

Temp ( °F °C ) Dew Point ( °F °C ) Humidity (%) Winds ( mph kmh ) Pressure ( in mb ) Visibility ( mi km ) Precip ( " mm )
12:15 am 00:15 Clear 64 17.7 61 16 90 90 NNE 3 6 30.08 1019 10 16.0934 0 0
12:35 am 00:35 Clear 64 17.6 60 15.7 89 89 NNE 3 6 30.08 1019 10 16.0934 0 0
12:55 am 00:55 Clear 64 17.5 60 15.3 87 87 N 3 6 30.08 1019 10 16.0934 0 0
1:15 am 01:15 Clear 63 17 59 15.1 89 89 N 3 6 30.1 1019 10 16.0934 0 0
1:35 am 01:35 Clear 62 16.5 58 14.5 88 88 N 5 7 30.09 1019 10 16.0934 0 0
1:55 am 01:55 Clear 62 16.5 58 14.4 87 87 NNE 6 9 30.1 1019 10 16.0934 0 0
2:15 am 02:15 Clear 61 16.1 57 14 87 87 N 6 9 30.11 1019 10 16.0934 0 0
2:35 am 02:35 Clear 60 15.5 57 13.8 90 90 NNW 3 6 30.12 1020 10 16.0934 0 0
2:55 am 02:55 Partly Cloudy 59 15 57 13.8 93 93 N 5 7 30.12 1020 10 16.0934 0 0
3:15 am 03:15 Partly Cloudy 59 15 57 13.7 92 92 NW 3 6 30.12 1020 10 16.0934 0 0
3:35 am 03:35 Partly Cloudy 58 14.7 56 13.6 93 93 NW 3 6 30.11 1020 10 16.0934 0 0
3:55 am 03:55 Mostly Cloudy 58 14.5 56 13.5 94 94 W 5 7 30.12 1020 10 16.0934 0 0
4:15 am 04:15 Partly Cloudy 58 14.3 56 13.2 93 93 WNW 5 7 30.12 1020 10 16.0934 0 0
4:35 am 04:35 Clear 57 14 55 13 94 94 WNW 6 9 30.11 1020 10 16.0934 0 0
4:55 am 04:55 Clear 57 13.9 55 12.7 93 93 WNW 6 9 30.13 1020 10 16.0934 0 0
5:15 am 05:15 Clear 56 13.6 55 12.5 93 93 NW 5 7 30.13 1020 10 16.0934 0 0
5:35 am 05:35 Clear 56 13.2 55 12.5 96 96 W 5 7 30.14 1021 10 16.0934 0 0
5:55 am 05:55 Clear 56 13.3 54 12.4 94 94 WNW 6 9 30.14 1021 10 16.0934 0 0
6:15 am 06:15 Clear 55 12.8 53 11.8 94 94 NW 6 9 30.15 1021 10 16.0934 0 0
6:35 am 06:35 Clear 54 12 52 11.2 95 95 NW 5 7 30.16 1021 10 16.0934 0 0
6:55 am 06:55 Sunny 54 12.2 53 11.5 96 96 WNW 3 6 30.16 1021 10 16.0934 0 0
7:15 am 07:15 Sunny 55 12.7 54 12 96 96 WNW 5 7 30.16 1021 10 16.0934 0 0
7:35 am 07:35 Sunny 56 13.5 54 12.3 93 93 NW 5 7 30.16 1021 10 16.0934 0 0
7:55 am 07:55 Sunny 57 14.1 55 12.7 91 91 WNW 5 7 30.15 1021 10 16.0934 0 0
8:15 am 08:15 Sunny 59 15 55 13 88 88 NW 6 9 30.15 1021 10 16.0934 0 0
8:35 am 08:35 Sunny 60 15.7 56 13.5 87 87 NW 6 9 30.15 1021 10 16.0934 0 0
8:55 am 08:55 Sunny 63 17 58 14.2 84 84 NNW 5 7 30.14 1021 10 16.0934 0 0
9:15 am 09:15 Sunny 64 18 58 14.5 80 80 N 5 7 30.13 1020 10 16.0934 0 0
9:35 am 09:35 Sunny 67 19.5 58 14.2 72 72 N 7 11 30.12 1020 10 16.0934 0 0
9:55 am 09:55 Sunny 69 20.4 56 13.4 64 64 N 9 15 30.11 1020 10 16.0934 0 0
10:15 am 10:15 Sunny 69 20.8 55 12.6 60 60 N 9 15 30.1 1019 10 16.0934 0 0
10:35 am 10:35 Sunny 70 21.3 54 12.3 57 57 N 10 17 30.1 1019 10 16.0934 0 0
10:55 am 10:55 Sunny 71 21.9 53 11.8 53 53 NNE 10 17 30.11 1019 10 16.0934 0 0
11:15 am 11:15 Sunny 72 22.3 53 11.9 52 52 N 13 20 30.1 1019 10 16.0934 0 0
11:35 am 11:35 Partly Cloudy 73 22.6 53 11.9 51 51 N 10 17 30.1 1019 10 16.0934 0 0
11:55 am 11:55 Partly Cloudy 73 23 53 11.8 49 49 N 12 19 30.09 1019 10 16.0934 0 0
12:15 pm 12:15 Mostly Cloudy 75 23.7 52 10.9 45 45 N 14 22 30.08 1019 10 16.0934 0 0
12:35 pm 12:35 Partly Cloudy 74 23.6 50 10.1 43 43 N 12 19 30.08 1019 10 16.0934 0 0
12:55 pm 12:55 Partly Cloudy 75 24 52 11.2 45 45 N 12 19 30.08 1019 10 16.0934 0 0
1:15 pm 13:15 Partly Cloudy 74 23.5 51 10.6 44 44 N 13 20 30.07 1018 10 16.0934 0 0
1:35 pm 13:35 Partly Cloudy 75 24 51 10.3 42 42 N 14 22 30.07 1018 10 16.0934 0 0
1:55 pm 13:55 Partly Cloudy 75 24.1 50 10 41 41 NNE 10 17 30.06 1018 10 16.0934 0 0
2:15 pm 14:15 Partly Cloudy 76 24.5 49 9.5 39 39 NNE 8 13 30.05 1018 10 16.0934 0 0
2:35 pm 14:35 Sunny 76 24.4 48 9 38 38 N 12 19 30.05 1018 10 16.0934 0 0
2:55 pm 14:55 Sunny 76 24.5 49 9.6 39 39 NNE 9 15 30.05 1018 10 16.0934 0 0
3:15 pm 15:15 Partly Cloudy 76 24.5 49 9.3 38 38 N 8 13 30.05 1018 10 16.0934 0 0
3:35 pm 15:35 Partly Cloudy 77 24.9 51 10.4 40 40 N 6 9 30.04 1017 10 16.0934 0 0
3:55 pm 15:55 Partly Cloudy 77 25.2 51 10.4 39 39 N 10 17 30.03 1017 10 16.0934 0 0
4:15 pm 16:15 Partly Cloudy 77 25.2 50 10.2 39 39 N 8 13 30.03 1017 10 16.0934 0 0
4:35 pm 16:35 Sunny 77 25.2 50 10 38 38 NNE 9 15 30.03 1017 10 16.0934 0 0
4:55 pm 16:55 Sunny 77 25.2 50 10.2 39 39 NNE 5 7 30.02 1017 10 16.0934 0 0
5:15 pm 17:15 Partly Cloudy 77 25.1 51 10.7 40 40 NNE 8 13 30.02 1017 10 16.0934 0 0
5:35 pm 17:35 Sunny 77 25.2 52 10.9 41 41 N 5 7 30.02 1017 10 16.0934 0 0
5:55 pm 17:55 Partly Cloudy 77 24.9 52 11.1 42 42 N 10 17 30.01 1016 10 16.0934 0 0
6:15 pm 18:15 Partly Cloudy 76 24.3 54 12 46 46 N 6 9 30.02 1016 10 16.0934 0 0
6:35 pm 18:35 Sunny 76 24.7 51 10.7 41 41 NNE 7 11 30 1016 10 16.0934 0 0
6:55 pm 18:55 Sunny 76 24.5 53 11.5 44 44 NNE 8 13 30 1016 10 16.0934 0 0
7:15 pm 19:15 Sunny 75 24.1 52 11 44 44 N 6 9 30.01 1016 10 16.0934 0 0
7:35 pm 19:35 Sunny 75 23.9 55 12.5 49 49 NNE 6 9 30.02 1017 10 16.0934 0 0
7:55 pm 19:55 Sunny 73 22.8 55 12.9 54 54 NNE 5 7 30.03 1017 10 16.0934 0 0
8:15 pm 20:15 Sunny 71 21.8 56 13.6 60 60 NNE 3 6 30.04 1017 10 16.0934 0 0
8:35 pm 20:35 Sunny 69 20.6 57 13.7 65 65 NE 6 9 30.05 1017 10 16.0934 0 0
8:55 pm 20:55 Clear 67 19.7 56 13.6 68 68 ENE 5 7 30.05 1018 10 16.0934 0 0
9:15 pm 21:15 Clear 65 18.5 57 14.1 76 76 ENE 5 7 30.07 1018 10 16.0934 0 0
9:35 pm 21:35 Clear 65 18.2 57 14 77 77 ENE 3 6 30.09 1019 10 16.0934 0 0
9:55 pm 21:55 Clear 64 17.7 57 14 79 79 E 3 6 30.1 1019 10 16.0934 0 0
10:15 pm 22:15 Clear 63 17.2 57 14 82 82 ENE 3 6 30.12 1020 10 16.0934 0 0
10:35 pm 22:35 Clear 61 16.3 57 13.8 85 85 ENE 3 6 30.12 1020 10 16.0934 0 0
10:55 pm 22:55 Clear 61 16 57 13.7 86 86 Calm 30.13 1020 10 16.0934 0 0
11:15 pm 23:15 Clear 61 16 56 13.5 85 85 Calm 30.13 1020 10 16.0934 0 0
11:35 pm 23:35 Clear 59 15.1 56 13.2 89 89 Calm 30.14 1021 10 16.0934 0 0
11:55 pm 23:55 Clear 60 15.7 55 13 84 84 Calm 30.14 1021 10 16.0934 0 0

Powered by AerisWeather